Torna al catalogo

ATLAS 5 CENTAUR DEB

AttivoHEO
NORAD 44646·DEBRIS·🇺🇸 United States

Lanciato Oct 17, 2018 da Cape Canaveral Space Force Station

Loading…

Prossimi Passaggi (prossime 24 ore)

TLE

AggiornatoSource: Space-Track

Epoca: Sep 12, 2026, 12:31 UTC

1 44646U 18079G   26255.52214563 -.00000186  00000-0  00000-0 0  9993
2 44646  13.8482   8.3343 4742348   4.4011 358.5150  1.85996905 53664

Traccia ATLAS 5 CENTAUR DEB in tempo reale con AllMySat

Download on the App Store